Location: Lecco
(45.8566°N, 9.3977°E)
Time: 12:29:59
(UTC+02:00)

A-11 Canister half - All Passes

Search period start: 07 August 2020 00:00
Search period end: 17 August 2020 00:00
Orbit: 1527 x 1682 km, 47.3° (Epoch: 07 August)

Date Brightness Start Highest point End Pass type
(mag) Time Alt. Az. Time Alt. Az. Time Alt. Az.
07 Aug - 11:53:53 10° S 12:00:50 21° SE 12:07:48 10° E daylight
07 Aug - 13:54:34 10° SW 14:04:25 59° SSE 14:14:15 10° ENE daylight
07 Aug - 15:59:12 10° W 16:09:26 86° NNW 16:19:31 10° E daylight
07 Aug - 18:04:47 10° WNW 18:14:59 90° SSE 18:24:54 10° ESE daylight
07 Aug - 20:10:11 10° WNW 20:19:42 50° SW 20:28:54 10° SE daylight
07 Aug - 22:17:44 10° W 22:22:52 16° WSW 22:27:55 10° SSW visible
08 Aug - 11:32:36 10° SSE 11:39:15 20° SE 11:45:57 10° E daylight
08 Aug - 13:32:58 10° SW 13:42:46 57° SE 13:52:34 10° ENE daylight
08 Aug - 15:37:30 10° WSW 15:47:45 87° N 15:57:50 10° E daylight
08 Aug - 17:43:06 10° WNW 17:53:18 89° NNE 18:03:14 10° ESE daylight
08 Aug - 19:48:29 10° WNW 19:58:05 52° SW 20:07:23 10° SE daylight
08 Aug - 21:55:44 10° W 22:01:19 17° SW 22:06:49 10° SSW visible
09 Aug - 11:11:22 10° SSE 11:17:42 19° SE 11:24:03 10° E daylight
09 Aug - 13:11:24 10° SW 13:21:08 55° SE 13:30:54 10° ENE daylight
09 Aug - 15:15:49 10° WSW 15:26:03 88° N 15:36:11 10° E daylight
09 Aug - 17:21:24 10° W 17:31:37 88° NNE 17:41:35 10° ESE daylight
09 Aug - 19:26:47 10° WNW 19:36:27 55° SW 19:45:50 10° SE daylight
09 Aug - 21:33:47 10° W 21:39:46 18° SW 21:45:40 10° SSW visible
10 Aug - 10:50:09 10° SSE 10:56:08 18° SE 11:02:08 10° E daylight
10 Aug - 12:49:49 10° SW 12:59:30 53° SE 13:09:12 10° ENE daylight
10 Aug - 14:54:07 10° WSW 15:04:21 89° NNW 15:14:30 10° ENE daylight
10 Aug - 16:59:41 10° W 17:09:55 87° N 17:19:55 10° ESE daylight
10 Aug - 19:05:05 10° WNW 19:14:50 57° SW 19:24:17 10° SE daylight
10 Aug - 21:11:52 10° W 21:18:13 19° SW 21:24:28 10° SSW visible
11 Aug - 10:29:00 10° SSE 10:34:34 16° SE 10:40:10 10° E daylight
11 Aug - 12:28:16 10° SW 12:37:52 51° SE 12:47:31 10° ENE daylight
11 Aug - 14:32:26 10° WSW 14:42:39 90° WNW 14:52:49 10° ENE daylight
11 Aug - 16:37:59 10° W 16:48:14 86° N 16:58:15 10° E daylight
11 Aug - 18:43:23 10° WNW 18:53:12 59° SSW 19:02:44 10° SE daylight
11 Aug - 20:49:58 10° W 20:56:39 21° SW 21:03:14 10° S daylight
12 Aug - 10:07:54 10° SSE 10:13:01 15° ESE 10:18:09 10° E daylight
12 Aug - 12:06:43 10° SSW 12:16:14 49° SE 12:25:49 10° ENE daylight
12 Aug - 14:10:46 10° WSW 14:20:58 89° SSE 14:31:09 10° ENE daylight
12 Aug - 16:16:18 10° W 16:26:32 85° N 16:36:35 10° E daylight
12 Aug - 18:21:41 10° WNW 18:31:33 61° SSW 18:41:10 10° SE daylight
12 Aug - 20:28:07 10° W 20:35:06 22° SW 20:41:58 10° S daylight
13 Aug - 09:46:52 10° SSE 09:51:28 14° ESE 09:56:04 10° E daylight
13 Aug - 11:45:10 10° SSW 11:54:36 47° SE 12:04:07 10° ENE daylight
13 Aug - 13:49:05 10° WSW 13:59:16 88° SSE 14:09:27 10° ENE daylight
13 Aug - 15:54:35 10° W 16:04:50 85° N 16:14:55 10° E daylight
13 Aug - 17:59:58 10° WNW 18:09:55 63° SSW 18:19:35 10° SE daylight
13 Aug - 20:06:16 10° W 20:13:32 23° SW 20:20:41 10° S daylight
14 Aug - 09:25:57 10° SE 09:29:55 13° ESE 09:33:54 10° E daylight
14 Aug - 11:23:38 10° SSW 11:32:59 46° SE 11:42:25 10° ENE daylight
14 Aug - 13:27:24 10° WSW 13:37:36 86° SSE 13:47:47 10° ENE daylight
14 Aug - 15:32:53 10° W 15:43:08 84° N 15:53:14 10° E daylight
14 Aug - 17:38:17 10° WNW 17:48:16 65° SSW 17:58:00 10° SE daylight
14 Aug - 19:44:27 10° W 19:51:59 25° SW 19:59:21 10° S daylight
15 Aug - 09:05:10 10° SE 09:08:22 12° ESE 09:11:34 10° ESE daylight
15 Aug - 11:02:07 10° SSW 11:11:21 44° SE 11:20:42 10° ENE daylight
15 Aug - 13:05:45 10° WSW 13:15:54 85° SSE 13:26:06 10° ENE daylight
15 Aug - 15:11:11 10° W 15:21:26 84° N 15:31:33 10° E daylight
15 Aug - 17:16:36 10° WNW 17:26:37 67° SSW 17:36:24 10° SE daylight
15 Aug - 19:22:39 10° W 19:30:23 26° SW 19:38:01 10° S daylight
16 Aug - 08:44:45 10° SE 08:46:50 11° ESE 08:48:55 10° ESE daylight
16 Aug - 10:40:37 10° SSW 10:49:44 42° SE 10:58:59 10° ENE daylight
16 Aug - 12:44:04 10° WSW 12:54:13 84° SSE 13:04:25 10° ENE daylight
16 Aug - 14:49:29 10° W 14:59:44 83° N 15:09:52 10° E daylight
16 Aug - 16:54:54 10° WNW 17:04:58 69° SSW 17:14:48 10° SE daylight
16 Aug - 19:00:50 10° WNW 19:08:49 28° SW 19:16:38 10° S daylight
